Погода в Зельве

Беларусь     53°08′58″N   24°49′01″E
темп.,
°C
ветер,
м/с
пор.,
м/с
влажн.,
%
обл.,
%
осадки,
мм/ч
давл.,
гПа
погр.,
м
12 мая, ср
ср1200:00+10юв4148157 0.0 1017292
03:00+10юв4138526 0.0 1017243
06:00+9юв411935 0.0 1017205
09:00+15вюв711795 0.0 1017567
12:00+17вюв810574 0.0 10161114
15:00+18вюв79481 0.0 10151525
18:00+17юв68600 0.0 10151644
21:00+11вюв34765 0.0 101458
13 мая, чт
чт1300:00+9юв36826 0.0 1013109
03:00+7ю22867 0.0 101220
06:00+7ю228464 0.0 101014
09:00+9в3487100 0.6 1009297
12:00+10юв4689100 3.1 1008517
15:00+11вюв5788100 4.3 1007434
18:00+12в5783100 0.5 1005343
21:00+10вюв5995100 1.1 1005311
14 мая, пт
пт1400:00+10вюв4996100 0.0 1004490
03:00+10вюв4998100 0.5 1003439
06:00+11ююв61198100 3.8 1002544
09:00+12ююв61094100 3.9 1002580
12:00+16ю7976100 0.4 10031114
15:00+17ююз5966100 1.3 10031531
18:00+17ююз467297 1.1 1003984
21:00+13ю368592 1.3 1004115
15 мая, сб
сб1500:00+10зюз33938 0.0 100536
03:00+9юз229449 0.0 100516
06:00+10юз2494100 0.0 1006110
09:00+12юз3488100 0.0 1007255
12:00+14зюз3483100 0.1 1008654
15:00+17зсз556999 1.3 10081298
18:00+16зсз567234 0.5 1008777
21:00+12з23815 0.5 100921
16 мая, вс
вс1600:00+9ссв11925 0.0 101115
03:00+8в22935 0.0 101113
06:00+9ю2292100 0.0 101213
09:00+14ююв237899 0.0 1012393
12:00+17ююв566916 1.7 10111093
15:00+18ююв566486 2.9 10101393
18:00+17ююв4776100 0.9 1009788
21:00+13ююв41091100 1.7 1009310